Date,TemperatureHighF,TemperatureAvgF,TemperatureLowF,DewpointHighF,DewpointAvgF,DewpointLowF,HumidityHigh,HumidityAvg,HumidityLow,PressureMaxIn,PressureMinIn,WindSpeedMaxMPH,WindSpeedAvgMPH,GustSpeedMaxMPH,PrecipitationSumIn
2013-8-26,88,79,72,73,71,70,92,79,59,30.09,30.07,5,0,6,0.00
2013-8-27,88,76,66,73,69,65,97,79,50,30.10,30.00,8,1,10,0.00
2013-8-28,89,77,65,74,69,64,98,80,53,30.06,29.99,9,1,11,0.00
2013-8-29,92,79,66,77,72,65,98,80,56,30.05,29.95,8,1,8,0.00
2013-8-30,92,80,71,78,73,69,97,80,51,29.98,29.84,8,1,9,0.00
2013-8-31,94,80,69,78,72,68,97,79,49,29.88,29.76,10,1,11,0.00
2013-9-1,84,76,70,73,70,67,96,85,62,29.89,29.76,18,1,18,0.00
2013-9-2,83,74,63,70,64,60,97,75,47,29.98,29.87,12,2,12,0.00
2013-9-3,83,69,55,66,60,54,97,76,43,30.07,29.97,10,1,10,0.00
2013-9-4,86,69,54,65,59,52,97,74,38,30.16,30.05,8,1,9,0.00
2013-9-5,85,70,56,65,60,54,97,74,41,30.19,30.09,8,1,9,0.00
2013-9-6,86,71,58,68,62,57,96,75,44,30.15,30.01,8,1,9,0.00
2013-9-7,90,75,61,72,66,59,97,76,46,30.04,29.92,8,1,8,0.00
2013-9-8,90,76,64,76,69,63,96,82,57,29.95,29.86,2,0,2,0.00
2013-9-9,93,79,67,71,68,64,97,72,40,29.98,29.90,14,1,19,0.00
2013-9-10,92,76,63,69,66,62,95,72,40,30.09,29.96,14,2,20,0.00
2013-9-11,91,76,64,73,67,62,95,75,46,30.13,30.02,12,1,12,0.00
2013-9-12,88,76,66,72,67,64,97,77,53,30.06,29.97,16,3,17,0.00
2013-9-13,75,66,53,65,54,50,93,66,45,30.10,30.01,15,3,16,0.00
2013-9-14,78,63,46,55,51,45,95,68,39,30.12,30.00,14,2,14,0.00
2013-9-15,86,70,56,67,58,50,83,66,46,30.06,29.99,14,3,14,0.00
2013-9-16,73,68,65,68,64,61,95,89,79,30.18,30.05,12,2,12,0.34
2013-9-17,79,70,63,70,65,61,96,84,65,30.17,30.00,15,3,16,0.57
2013-9-18,84,74,68,72,68,65,93,84,65,30.02,29.91,17,4,20,0.09
2013-9-19,88,77,71,74,69,66,91,78,52,29.97,29.84,22,5,23,0.01
2013-9-20,73,66,56,69,62,52,97,87,66,29.96,29.88,17,3,18,1.70
2013-9-21,72,59,48,54,49,43,97,73,38,30.03,29.92,19,3,20,0.00
2013-9-22,74,59,42,56,50,41,97,75,45,30.02,29.90,13,2,13,0.00
2013-9-23,76,62,47,58,53,45,97,74,49,29.96,29.83,22,2,22,0.00
2013-9-24,76,66,57,61,58,55,93,76,54,29.91,29.80,19,2,19,0.00
2013-9-25,78,64,51,65,58,50,97,83,57,29.88,29.81,12,1,12,0.00
2013-9-26,81,68,55,65,60,54,98,79,54,29.97,29.86,16,3,19,0.00
2013-9-27,83,72,63,67,63,61,94,76,50,30.01,29.91,26,4,26,0.00
2013-9-28,78,68,61,68,64,60,96,87,70,30.03,29.90,21,4,21,0.47
2013-9-29,73,62,54,60,56,51,96,81,49,30.07,29.94,16,3,16,0.01
2013-9-30,75,66,53,66,62,52,98,88,68,29.96,29.85,16,3,16,0.00
2013-10-1,82,71,64,71,66,63,98,85,53,29.99,29.89,15,3,16,0.00
2013-10-2,80,70,62,73,67,61,98,91,75,30.02,29.91,17,3,19,0.05
2013-10-3,83,73,65,72,68,64,96,84,61,29.94,29.82,24,5,24,0.00
2013-10-4,84,74,67,72,68,63,96,82,60,29.91,29.83,21,5,21,0.00
2013-10-5,72,58,47,69,56,46,98,95,80,30.00,29.87,15,3,17,1.60
2013-10-6,58,51,42,47,44,40,97,78,59,30.02,29.93,21,3,21,0.00
2013-10-7,68,54,43,52,47,41,96,77,46,30.16,30.02,17,2,17,0.00
2013-10-8,70,56,41,54,48,40,97,77,50,30.19,30.09,19,2,19,0.00
2013-10-9,72,58,42,55,49,40,96,75,45,30.15,30.06,12,2,13,0.00
2013-10-10,74,61,48,60,54,46,97,80,52,30.13,29.95,15,2,15,0.00
2013-10-11,78,66,57,65,60,55,96,82,62,29.97,29.85,26,5,30,0.00
2013-10-12,70,61,50,61,57,48,97,86,61,30.19,29.89,24,3,24,0.24
2013-10-13,69,59,50,51,47,43,95,66,44,30.37,30.19,22,4,22,0.00
2013-10-14,65,59,51,60,52,42,92,77,61,30.29,29.99,18,4,18,0.02
2013-10-15,63,59,51,61,56,47,97,90,69,30.06,29.88,17,3,17,0.40
2013-10-16,58,50,42,47,43,39,90,78,62,30.13,30.02,17,2,17,0.00
2013-10-17,61,51,42,48,44,40,96,80,51,30.07,29.98,13,1,13,0.01
2013-10-18,58,46,38,48,42,37,97,86,66,30.11,30.02,15,3,15,0.19
2013-10-19,56,44,36,42,38,34,95,81,49,30.14,30.03,14,2,14,0.02
2013-10-20,67,50,36,47,41,35,96,74,37,30.05,29.91,23,3,23,0.00
2013-10-21,54,46,36,45,40,34,96,82,61,30.13,29.98,23,2,23,0.00
2013-10-22,64,48,32,47,39,31,97,74,46,30.12,29.93,19,4,19,0.00
2013-10-23,55,44,33,42,36,31,95,76,52,30.21,30.06,12,2,12,0.00
2013-10-24,50,42,32,39,33,27,95,73,43,30.47,30.13,23,4,23,0.00
2013-10-25,54,40,26,33,29,24,95,67,37,30.56,30.26,17,3,17,0.00
2013-10-26,64,50,36,53,43,32,93,79,64,30.26,30.10,18,2,19,0.00
2013-10-27,63,46,30,45,37,29,96,73,38,30.15,30.01,11,1,11,0.00
2013-10-28,66,52,36,55,48,35,98,87,63,30.21,30.06,17,2,17,0.00
2013-10-29,64,60,52,63,58,50,97,95,92,30.19,29.99,24,4,24,1.46
2013-10-30,67,64,61,64,62,60,97,95,90,30.04,29.80,28,7,29,0.72
2013-10-31,72,59,46,66,57,45,97,93,71,29.80,29.42,26,5,26,0.17
2013-11-1,63,51,42,47,43,41,98,77,45,29.99,29.71,20,2,21,0.00
2013-11-2,54,45,34,42,38,32,96,79,56,30.25,29.98,15,4,21,0.00
2013-11-3,58,45,29,43,37,28,97,75,49,30.29,30.07,25,5,26,0.00
2013-11-4,58,52,48,50,45,40,91,77,68,30.20,30.06,26,7,27,0.00
2013-11-5,59,56,52,58,55,50,96,95,91,30.19,29.96,24,7,24,0.64
2013-11-6,59,46,38,58,43,34,97,90,80,30.37,29.89,22,6,22,0.68
2013-11-7,58,42,28,42,34,28,97,79,45,30.48,30.36,17,2,17,0.00
2013-11-8,64,46,30,43,36,28,97,70,34,30.40,30.10,32,6,32,0.00
2013-11-9,64,51,40,44,40,37,95,71,44,30.30,30.12,18,3,18,0.00
2013-11-10,62,48,34,42,37,33,97,71,35,30.42,30.30,15,2,15,0.00
2013-11-11,62,50,38,52,44,35,91,79,63,30.47,30.19,29,4,31,0.00
2013-11-12,38,30,20,35,20,15,90,68,43,30.79,30.46,27,8,29,0.00
2013-11-13,48,32,16,24,18,13,92,62,29,30.76,30.37,20,4,20,0.00
2013-11-14,55,42,27,28,23,19,73,49,24,30.37,30.08,22,6,22,0.00
2013-11-15,56,48,42,49,41,28,90,77,51,30.09,29.89,22,6,22,0.01
2013-11-16,70,61,51,62,56,48,93,82,65,29.90,29.59,35,10,35,0.01
2013-11-17,73,64,48,64,45,22,86,52,25,30.05,29.48,39,8,39,0.00
2013-11-18,58,45,34,39,32,26,88,62,31,30.31,30.05,15,2,15,0.00
2013-11-19,55,45,32,34,29,25,91,58,34,30.32,30.12,21,6,22,0.00
2013-11-20,57,48,39,35,31,25,76,54,37,30.13,29.95,24,8,24,0.05
2013-11-21,53,50,46,49,45,34,96,87,48,30.27,30.02,18,4,18,0.71
2013-11-22,46,32,30,43,31,28,96,93,90,30.59,30.27,26,9,26,0.00
2013-11-23,38,30,19,29,20,12,90,69,49,30.75,30.58,23,9,26,0.00
2013-11-24,29,22,14,14,11,7,81,63,42,30.77,30.45,15,5,15,0.00
2013-11-25,35,31,28,30,23,13,90,73,52,30.45,30.22,15,4,16,0.01
2013-11-26,43,33,24,32,26,14,89,73,58,30.38,30.16,32,7,32,0.00
2013-11-27,32,24,18,16,13,11,78,65,44,30.48,30.36,21,4,21,0.00
2013-11-28,51,34,21,30,23,14,90,67,43,30.51,30.35,17,2,19,0.00
2013-11-29,52,37,22,32,28,20,93,71,43,30.57,30.37,15,3,16,0.00
2013-11-30,60,45,33,43,36,28,94,73,53,30.38,30.14,24,4,24,0.00
2013-12-1,55,44,33,49,42,32,97,93,81,30.17,29.91,10,1,11,0.00
2013-12-2,58,48,38,50,45,37,98,90,73,29.92,29.69,14,2,14,0.00
2013-12-3,60,50,38,53,48,36,98,92,74,29.70,29.58,17,5,17,0.01
2013-12-4,65,49,32,53,45,28,97,86,56,29.96,29.57,21,6,21,0.00
2013-12-5,32,24,19,28,19,16,92,84,73,30.38,29.95,23,7,23,0.35
2013-12-6,20,18,12,16,13,5,90,81,67,30.66,30.33,22,9,23,0.10
2013-12-7,20,14,7,14,6,1,86,71,56,30.75,30.42,21,7,21,0.00
2013-12-8,28,22,18,26,19,10,95,87,66,30.43,30.09,13,4,14,0.02
2013-12-9,28,22,19,26,18,14,93,85,68,30.41,30.22,17,4,17,0.04
2013-12-10,31,19,2,18,13,-2,92,76,52,30.50,30.35,15,2,15,0.01
2013-12-11,33,20,8,23,13,5,93,76,54,30.71,30.38,19,4,20,0.00
2013-12-12,41,24,6,21,14,3,89,69,40,30.72,30.35,18,3,18,0.00
2013-12-13,34,32,24,32,28,16,96,86,66,30.35,29.91,20,6,20,0.54
2013-12-14,34,30,26,32,28,23,97,93,87,30.28,29.89,24,6,26,0.37
2013-12-15,46,31,16,34,26,14,94,83,62,30.30,30.14,13,3,17,0.00
2013-12-16,60,42,32,36,32,28,91,70,40,30.17,30.06,10,2,12,0.00
2013-12-17,50,35,25,36,29,23,96,79,46,30.35,30.15,18,2,20,0.00
2013-12-18,62,43,25,38,32,22,93,67,36,30.35,29.98,26,6,26,0.00
2013-12-19,56,52,44,52,46,37,88,81,73,29.98,29.74,26,7,26,0.00
2013-12-20,60,44,31,56,42,30,95,92,80,29.90,29.72,19,5,19,0.04
2013-12-21,36,33,31,35,32,30,97,95,94,29.84,29.55,16,3,17,1.18
2013-12-22,36,29,24,35,26,21,97,90,86,30.40,29.71,24,6,24,0.00
2013-12-23,26,21,16,22,17,13,90,84,71,30.66,30.40,18,5,18,0.01
2013-12-24,33,22,10,22,16,7,92,78,63,30.66,30.36,23,6,23,0.00
2013-12-25,39,30,22,33,26,21,96,86,77,30.44,30.35,14,3,14,0.00
2013-12-26,49,32,20,35,25,18,97,79,38,30.47,30.33,18,2,18,0.00
2013-12-27,56,37,23,36,28,21,94,74,40,30.46,30.34,14,2,14,0.00
2013-12-28,53,38,23,36,29,20,93,71,43,30.34,29.98,18,3,19,0.00
2013-12-29,42,28,19,36,22,13,87,79,69,30.33,29.97,22,6,22,0.00
2013-12-30,35,22,11,19,12,5,79,67,45,30.40,30.29,13,3,13,0.00
2013-12-31,54,36,17,30,22,14,88,60,34,30.45,30.21,20,5,21,0.00
2014-1-1,48,36,21,31,27,18,91,70,49,30.21,29.93,25,5,25,0.05
2014-1-2,20,13,6,18,8,2,89,80,61,30.57,30.16,26,5,26,0.03